Regional Weather Roundup
Issued by NWS

Home | Current Version | Previous Version | Text Only | Print | Product List | Glossary On
Versions: 1 2 3 4 5 6 7 8 9 10 11 12 13 14 15 16 17 18 19 20 21 22 23 24 25 26 27 28 29 30 31 32 33 34 35 36 37 38 39 40 41 42 43 44 45 46 47 48 49 50
000
ASUS43 KLMK 221302
RWRKY
KENTUCKY REGIONAL WEATHER ROUNDUP
NATIONAL WEATHER SERVICE LOUISVILLE KY
800 AM EST THU FEB 22 2018

NOTE "FAIR" INDICATES FEW OR NO CLOUDS BELOW 12,000 FEET
WITH NO SIGNIFICANT WEATHER AND/OR OBSTRUCTIONS TO VISIBILITY.

KYZ001>023-026-027-061>063-070>075-221400-
WESTERN AND SOUTH CENTRAL KENTUCKY

CITY           SKY/WX    TMP DP  RH WIND       PRES   REMARKS
PADUCAH        CLOUDY    42  40  92 NE7       30.32R
HENDERSON      CLOUDY    43  42  97 N9        30.35R
OWENSBORO      LGT RAIN  45  45 100 N7        30.35R FOG
HOPKINSVILLE   CLOUDY    48  48 100 NE6       30.29R
BOWLING GREEN  MOCLDY    50  50 100 NW12G24   30.30R
GLASGOW        NOT AVBL
$$

KYZ024-025-028>034-038-045-046-053-221400-
NORTH CENTRAL KENTUCKY

CITY           SKY/WX    TMP DP  RH WIND       PRES   REMARKS
LOUISVILLE/SDF CLOUDY    44  40  85 E6        30.32R
LOUISVILLE/LOU CLOUDY    43  41  93 E12G20    30.31F
FORT KNOX      CLOUDY    43  43 100 E9        30.30R
$$

KYZ035>037-039>044-047>052-055>060-089>105-221400-
NORTHEAST KENTUCKY

CITY           SKY/WX    TMP DP  RH WIND       PRES   REMARKS
LEXINGTON      CLOUDY    44  40  85 NE12      30.32R
COVINGTON      LGT RAIN  39  39 100 E20       30.33F WCI  29
FRANKFORT      CLOUDY    42  39  89 NE6       30.31F
$$

KYZ054-064>069-076>088-106>120-221400-
SOUTHEAST KENTUCKY

CITY           SKY/WX    TMP DP  RH WIND       PRES   REMARKS
JACKSON        FOG       51  50  96 VRB3      30.30R VSB<1/4
LONDON         LGT RAIN  66  60  81 SW17G26   30.31R
SOMERSET       NOT AVBL
MIDDLESBORO    CLOUDY    68  60  75 SW9       30.36R
MONTICELLO     NOT AVBL
$$





USA.gov is the U.S. government's official web portal to all federal, state and local government web resources and services.